World > North America > United States > Ohio > Oak Hill

Oak Hill, OH Hourly Weather Conditions

Feedback E-mail the Weather

Quick WX

Oak Hill, OH Weather Maps

°F °C°F °C
Oak Hill Weather Map
UTC Time: 11/27/2022, 15:52
Your Time:

Oak Hill, OH Regional Weather

Expires:202211271600;;895835
ASUS41 KCLE 271512
RWRCLE
OHIO REGIONAL WEATHER ROUNDUP
NATIONAL WEATHER SERVICE WILMINGTON, OH
1000 AM EST SUN NOV 27 2022

NOTE: "FAIR" INDICATES FEW OR NO CLOUDS BELOW 12,000 FEET WITH NO
SIGNIFICANT WEATHER AND/OR OBSTRUCTIONS TO VISIBILITY.


OHZ036-037-039>041-045>050-054>059-063>069-073>076-082>088-271600-
  CENTRAL AND SOUTHEAST OHIO
  
CITY           SKY/WX    TMP DP  RH WIND       PRES   REMARKS
COLUMBUS       PTSUNNY   50  49  96 SE8       29.46F                  
OSU AIRPORT    LGT RAIN  52  49  89 S14       29.45F                  
BOLTON FIELD   LGT RAIN  50  48  93 S14G20    29.47F                  
RICKENBACK AFB CLOUDY    52  50  93 S10       29.46F                  
NEWARK         CLOUDY    51  47  86 S8        29.48F                  
MARION         CLOUDY    52  50  93 S14       29.43F                  
LANCASTER      CLOUDY    52  51  97 SE10      29.48F                  
ZANESVILLE     LGT RAIN  50  48  93 SE9       29.51F FOG              
NEW PHILLY     LGT RAIN  48  46  93 SE5       29.52F                  
$$
  

SKY/WX - Weather  TMP - Temperature  DP - Dew Point  RH - Humidity
WIND - Wind Direction/Speed PRES - Barometric Pressure VSB - Visibility
WCI - Wind Chill Index E13G22 Wind - East Wind 13 mph/Gusts of 22 mph

Trending Headlines

Trending Entertainment Headlines

Oak Hill Radar Loop

Use the map search tool if you want to place a location marker on the radar map...

Oak Hill Quick Facts

National Two Day Weather Forecast


E-mail the Oak Hill Weather Forecast

Voice your opinion or tell us about page issues...